This is the latest recevied weather packets stored in our database for station/object KD8UYA. If no packets are shown the sender has not sent any weather packets the latest 10 day(s).
| Time | Temp. | Humidity | Pressure | Rain* | Wind** | Luminosity | Snow |
|---|---|---|---|---|---|---|---|
| 1777811433 | 4.44° C | 76% | 1016.2 hPa | 0 mm | - | - | - |
| 1777810544 | 3.33° C | 79% | 1016.1 hPa | 0 mm | - | - | - |
| 1777809639 | 2.78° C | 83% | 1016.1 hPa | 0 mm | - | - | - |
| 1777808729 | 2.78° C | 83% | 1016 hPa | 0 mm | - | - | - |
| 1777807828 | 2.78° C | 83% | 1015.8 hPa | 0 mm | - | - | - |
| 1777806927 | 2.22° C | 84% | 1015.6 hPa | 0 mm | - | - | - |
| 1777806030 | 1.67° C | 87% | 1015.6 hPa | 0 mm | - | - | - |
| 1777805139 | 1.67° C | 88% | 1015.4 hPa | 0 mm | - | - | - |
| 1777804224 | 1.11° C | 88% | 1015.2 hPa | 0 mm | - | - | - |
| 1777803322 | 1.67° C | 87% | 1015.2 hPa | 0 mm | - | - | - |
| 1777802421 | 1.11° C | 88% | 1015.2 hPa | 0 mm | - | - | - |
| 1777801519 | 1.11° C | 89% | 1015.1 hPa | 0 mm | - | - | - |
| 1777800617 | 1.11° C | 89% | 1015.1 hPa | 0 mm | - | - | - |
| 1777799715 | 1.67° C | 90% | 1015.3 hPa | 0 mm | - | - | - |
| 1777798816 | 1.67° C | 90% | 1015.3 hPa | 0 mm | - | - | - |
| 1777797913 | 1.67° C | 91% | 1015.3 hPa | 0 mm | - | - | - |
| 1777797012 | 1.67° C | 91% | 1015.3 hPa | 0 mm | - | - | - |
| 1777796112 | 1.67° C | 91% | 1015.4 hPa | 0 mm | - | - | - |
| 1777795210 | 1.67° C | 91% | 1015.3 hPa | 0 mm | - | - | - |
| 1777794318 | 2.22° C | 91% | 1015.4 hPa | 0 mm | - | - | - |
| 1777793407 | 1.67° C | 91% | 1015.4 hPa | 0 mm | - | - | - |
| 1777792508 | 2.22° C | 91% | 1015.3 hPa | 0 mm | - | - | - |
| 1777791607 | 2.22° C | 90% | 1015.3 hPa | 0 mm | - | - | - |
| 1777790705 | 2.22° C | 90% | 1015.3 hPa | 0 mm | - | - | - |
| 1777789803 | 2.22° C | 91% | 1015.4 hPa | 0 mm | - | - | - |
* Rain latest hour (hover to see other rain measurements)
** Current wind speed in m/s (hover to see current wind gust speed)